{"data":{"norad_id":41869,"epoch":"2026-05-25T02:52:12.838656Z","epoch_age_seconds":64407,"freshness":"FRESH","line1":"1 41869U 16072A   26145.11959304  .00000029  00000+0  00000+0 0  9993","line2":"2 41869   0.8089  82.9963 0041119  90.6429 288.9020  1.00272286 35070","mean_motion":1.00272286,"eccentricity":0.0041119,"inclination_deg":0.8089,"raan_deg":82.9963,"arg_perigee_deg":90.6429,"mean_anomaly_deg":288.902,"bstar":0,"rev_number":3507,"period_min":1436.0897287213,"perigee_km":35613.077929445,"apogee_km":35959.831097132,"semimajor_km":42164.591513289,"source":"CELESTRAK","updated_at":"2026-05-25T13:38:14.009736Z"}}